FW9245 Weather Reports


time (UTC)temp
F
wind
direction
speed
knots
gust
knots
rain 1hr
in
rain 24hr
in
rain mn
in
humidity
%
barometer
mb
20260506173052 51 43 2.6 6.1 0.01 0.00 0.66 99 1000.9
20260506172048 51 23 2.6 5.2 0.00 0.00 0.65 99 1000.8
20260506170054 51 47 1.7 4.3 0.00 0.00 0.65 99 1000.8
20260506165052 51 24 0.9 4.3 0.01 0.00 0.65 99 1000.7
20260506164049 51 27 1.7 5.2 0.02 0.00 0.65 99 1000.7
20260506163040 51 23 1.7 5.2 0.02 0.00 0.65 99 1000.6
20260506162039 51 23 3.5 6.1 0.02 0.00 0.65 99 1000.6
20260506161039 51 18 3.5 8.7 0.02 0.00 0.65 99 1000.8
20260506160045 51 48 3.5 7.8 0.02 0.00 0.65 99 1000.8
20260506155037 51 40 2.6 6.1 0.01 0.00 0.64 99 1000.9
20260506154041 51 40 3.5 7.8 0.00 0.00 0.63 99 1000.9
20260506153037 51 72 2.6 6.1 0.00 0.00 0.63 99 1000.9
20260506152053 51 49 2.6 4.3 0.00 0.00 0.63 99 1000.9
20260506150046 51 20 2.6 5.2 0.01 0.00 0.63 99 1000.6
20260506145046 51 47 3.5 7.8 0.01 0.00 0.63 99 1000.6
20260506144040 51 44 4.3 7.8 0.01 0.00 0.63 99 1000.6
20260506143046 51 50 3.5 7.0 0.01 0.00 0.63 99 1000.6
20260506142047 51 46 4.3 7.8 0.01 0.00 0.63 99 1000.7
20260506141055 50 48 6.1 10.4 0.00 0.00 0.62 99
20260506135031 50 50 5.2 8.7 0.00 0.00 0.62 99
20260506134053 50 44 6.1 11.3 0.00 0.00 0.62 99
20260506133046 50 44 5.2 10.4 0.00 0.00 0.62 99 1000.7
20260506132039 50 72 4.3 8.7 0.00 0.00 0.62 99 1000.7
20260506131031 50 45 6.1 10.4 0.01 0.00 0.62 99 1000.7
20260506130040 50 48 7.0 12.2 0.01 0.00 0.62 99 1000.7
20260506125047 50 41 5.2 10.4 0.01 0.00 0.62 99 1000.7
20260506123044 51 73 4.3 7.8 0.02 0.00 0.62 99 1000.7
20260506122048 51 68 5.2 10.4 0.02 0.00 0.62 99 1000.7
20260506121038 50 50 5.2 8.7 0.02 0.00 0.61 99 1000.8
20260506120049 50 40 3.5 7.8 0.02 0.00 0.61 99 1000.7
20260506115052 50 40 5.2 7.8 0.03 0.00 0.61 99 1000.6
20260506114047 50 44 3.5 7.0 0.03 0.00 0.61 99 1000.8
20260506113051 50 43 5.2 9.6 0.02 0.00 0.60 99 1000.9
20260506110055 49 49 3.5 7.8 0.04 0.00 0.59 99 1000.7
20260506105045 49 50 4.3 10.4 0.03 0.00 0.58 99 1000.7
20260506104041 49 48 4.3 8.7 0.03 0.00 0.58 99 1000.7
20260506103047 49 48 3.5 8.7 0.03 0.00 0.58 99 1000.7
20260506102050 48 39 3.5 8.7 0.01 0.00 0.56 99 1000.7
20260506101044 49 49 4.3 8.7 0.02 0.00 0.56 99 1000.8
20260506095050 48 39 3.5 8.7 0.01 0.00 0.55 99 1000.7
20260506093038 48 42 3.5 8.7 0.02 0.00 0.55 99 1000.6
20260506092037 48 51 2.6 5.2 0.02 0.00 0.55 99 1000.4
20260506091045 48 39 3.5 7.8 0.02 0.00 0.54 99 1000.4
20260506090054 48 43 3.5 7.8 0.02 0.00 0.54 99 1000.5
20260506085044 48 40 3.5 9.6 0.03 0.00 0.54 99 1000.5
20260506084044 48 45 4.3 7.8 0.03 0.00 0.53 99 1000.4
20260506083046 48 27 4.3 8.7 0.04 0.00 0.53 99 1000.3
20260506082047 48 41 3.5 7.0 0.04 0.00 0.53 99 1000.2
20260506081100 48 40 3.5 8.7 0.04 0.00 0.52 99 1000.2
20260506072035 48 44 3.5 7.0 0.08 0.00 0.49 99 1000.2
20260506071031 48 46 3.5 8.7 0.09 0.00 0.48 99 1000.0
20260506062045 47 29 2.6 5.2 0.07 0.00 0.41 99 999.8
20260506061041 47 49 3.5 7.0 0.06 0.00 0.39 99 999.7
20260506051053 47 39 3.5 7.0 0.05 0.00 0.33 99 999.7
20260506045054 48 19 2.6 6.1 0.06 0.00 0.32 99 999.8
20260506044050 48 46 3.5 7.0 0.06 0.00 0.31 99 999.9
20260506043042 48 44 2.6 7.0 0.07 0.00 0.30 99 999.9
20260506042054 48 49 3.5 7.8 0.06 0.00 0.29 99 999.9
20260506041048 48 28 3.5 6.1 0.06 0.00 0.28 99 1000.1
20260506040041 48 48 3.5 7.8 0.06 0.00 0.27 99 1000.1
20260506035042 49 39 3.5 7.0 0.06 0.00 0.26 99 1000.1
20260506034043 49 39 3.5 6.1 0.07 0.00 0.25 99 1000.1
20260506033041 49 45 5.2 8.7 0.06 0.00 0.22 99 1000.1
20260506032049 49 45 6.1 9.6 0.08 0.00 0.22 99 1000.2
20260506030052 50 45 3.5 6.1 0.08 0.00 0.20 99 1000.3
20260506025050 50 72 3.5 7.0 0.09 0.00 0.19 99 1000.3
20260506024043 50 50 3.5 6.1 0.08 0.00 0.17 99 1000.3
20260506022039 50 19 2.6 6.1 0.08 0.00 0.14 99 1000.5
20260506015049 50 45 2.6 5.2 0.06 0.00 0.10 99 1000.6
20260506014035 50 42 3.5 7.0 0.06 0.00 0.09 99 1000.6
20260506013041 50 46 3.5 6.1 0.06 0.00 0.08 99 1000.7
20260506012044 50 47 2.6 5.2 0.05 0.00 0.06 99 1000.7
20260506011054 51 28 3.5 6.1 0.04 0.00 0.05 99 1000.7
20260506010044 51 42 3.5 8.7 0.04 0.00 0.04 99 1000.7
20260506005043 51 45 3.5 6.1 0.04 0.00 0.04 99 1000.8
20260506004035 51 47 3.5 8.7 0.03 0.00 0.03 99 1000.9
20260506003051 51 23 3.5 5.2 0.02 0.00 0.02 99 1001.0
20260506002044 51 48 3.5 7.0 0.01 0.00 0.01 99 1001.1
20260506001054 51 19 3.5 7.0 0.01 0.00 0.01 99 1001.2
20260506000101 51 28 3.5 7.0 0.00 0.00 0.00 99 1001.3
20260505235031 51 42 2.6 7.0 0.00 0.00 0.03 99 1001.4
20260505234042 51 42 3.5 7.0 0.00 0.00 0.03 99 1001.5
20260505233037 51 45 3.5 8.7 0.00 0.00 0.03 99 1001.7
20260505232041 52 43 3.5 7.8 0.00 0.00 0.03 98 1001.6
20260505231036 52 51 3.5 7.0 0.00 0.00 0.03 98 1001.8
20260505225037 52 39 4.3 7.8 0.00 0.00 0.03 98 1001.8
20260505224042 52 42 3.5 8.7 0.00 0.00 0.03 99 1001.9
20260505223050 52 51 2.6 6.1 0.00 0.00 0.03 98 1001.9
20260505222041 52 48 2.6 7.0 0.00 0.00 0.03 98 1001.9
20260505221054 52 50 3.5 7.8 0.00 0.00 0.03 98 1001.9
20260505220050 52 43 3.5 8.7 0.00 0.00 0.03 96 1002.0
20260505214051 52 49 3.5 7.0 0.00 0.00 0.03 95 1002.2
20260505213039 53 50 4.3 8.7 0.00 0.00 0.03 94 1002.3
20260505212036 53 45 4.3 9.6 0.00 0.00 0.03 93 1002.2
20260505210101 54 48 3.5 7.8 0.00 0.00 0.03 92 1002.2
20260505205040 54 39 3.5 7.8 0.00 0.00 0.03 91 1002.4
20260505204054 54 50 5.2 10.4 0.00 0.00 0.03 91 1002.4
20260505203038 54 47 6.1 12.2 0.00 0.00 0.03 91 1002.2
20260505202047 54 49 5.2 10.4 0.00 0.00 0.03 91 1002.1
20260505201041 54 42 7.0 12.2 0.00 0.00 0.03 91 1002.2
20260505200057 54 41 5.2 11.3 0.00 0.00 0.03 91 1002.2
20260505195052 54 43 5.2 11.3 0.00 0.00 0.03 91 1002.2
20260505194034 54 42 5.2 9.6 0.00 0.00 0.03 90 1002.4
20260505192050 55 24 3.5 7.0 0.00 0.00 0.03 90 1002.5
20260505191038 55 46 3.5 7.0 0.00 0.00 0.03 89 1002.5
20260505190056 55 39 3.5 7.8 0.00 0.00 0.03 89 1002.4
20260505185040 55 43 3.5 7.8 0.00 0.00 0.03 89 1002.3
20260505184040 56 46 4.3 9.6 0.00 0.00 0.03 89 1002.2
20260505183048 56 45 4.3 9.6 0.00 0.00 0.03 89 1002.3
20260505182042 56 41 3.5 7.8 0.00 0.00 0.03 88 1002.3
20260505181039 56 43 1.7 5.2 0.00 0.00 0.03 88 1002.3
20260505180049 56 41 3.5 7.0 0.00 0.00 0.03 88 1002.3